sat.trackr.live / text

‹ back to catalog

HULIANWANG DIGUI-08

NORAD 62330 · 2024-240H

PAYLOAD ACTIVE UNKNOWN

§ Identity

Operator
Country
PRC
Launch date
2024-12-16
Launch site
WSC
Launch vehicle
Mass (kg)
RCS (m²)

External: N2YO · Heavens-Above · Gunter

§ Orbital elements

Epoch: 2026-09-22T21:05:04.982496Z

Period
108.73 min
Inclination
86.5016°
Eccentricity
0.0001383
Mean motion
13.24414340 rev/d
Perigee alt
1,166.9 km
Apogee alt
1,168.9 km
Semi-major
7,546.0 km
B*
9.3088e-6
RAAN
310.4924°
Arg perigee
94.2203°
Mean anomaly
265.9089°
Rev number
8,557

§ Raw data

HULIANWANG DIGUI-081 62330U 24240H   26265.87852989  .00000019  00000+0  93088-5 0  99952 62330  86.5016 310.4924 0001383  94.2203 265.9089 13.24414340 85570

JSON: /api/v1/satellites/62330 · /tle

For live sub-satellite position, see the globe view (requires WebGL).

§ Visibility from observer

Set your observer location to see the next 7 days of passes ≥ 10°. The values pass through the URL so the page stays shareable.

No JS? Fill the form by hand. The geolocation button needs JavaScript.